Simultaneous Nadir Overpasses (SNOs) Predictions

Prediction of SNOs between AQUA and METOP-C Satellite Orbit:

Table of predicted SNOs for the next 14.0 days since TLE Epoch: 12/17/2023
Index Date (AQUA) Time (AQUA) Lat,Lon (AQUA) SZA (AQUA ) Date (METOP-C) Time (METOP-C) Lat,Lon (METOP-C) SZA (METOP-C ) Distance(km) Time Diff (sec)
1 12/18/2023 23:33:28 74.94,-176.37 98.27 12/18/2023 23:33:09 74.93,-176.45 98.25 3.06 19
2 12/19/2023 00:22:52 -75.00, -8.87 81.67 12/19/2023 00:23:48 -75.02, -8.85 81.65 2.48 56
3 12/21/2023 15:45:50 74.93, -59.39 98.30 12/21/2023 15:44:47 74.95, -59.30 98.32 3.06 63
4 12/21/2023 16:35:14 -74.99, 108.11 81.65 12/21/2023 16:35:27 -74.99, 108.16 81.64 1.61 13
5 12/21/2023 17:24:50 75.59, -85.93 98.99 12/21/2023 17:25:55 75.59, -82.72 98.95 88.69 65
6 12/24/2023 08:47:35 -74.97,-134.90 81.68 12/24/2023 08:47:06 -74.96,-134.85 81.69 2.42 29
7 12/24/2023 09:37:00 75.03, 32.60 98.39 12/24/2023 09:37:45 75.03, 32.70 98.39 2.94 45
8 12/27/2023 00:59:54 -74.90, -17.76 81.82 12/27/2023 00:58:45 -74.91, -17.88 81.81 3.66 69
9 12/27/2023 01:49:19 75.01, 149.60 98.30 12/27/2023 01:49:23 74.99, 149.67 98.27 3.33 4
10 12/27/2023 02:38:47 -75.27, -43.44 81.44 12/27/2023 02:39:57 -75.32, -42.04 81.41 40.01 70
11 12/29/2023 18:01:37 74.94, -93.25 98.09 12/29/2023 18:01:02 74.94, -93.38 98.10 3.85 35
12 12/29/2023 18:51:02 -75.05, 74.13 81.81 12/29/2023 18:51:41 -75.03, 74.21 81.82 2.91 39



Historial Predications of SNOs between AQUA and METOP-C
